Hot Springs, VA

10:46 AM EDT on October 23, 2017 (GMT -0400)
Ingalls

Weather History for KHSP - November, 2011

Change the Weather History Date:

Saturday, November 26, 2011

  Actual Average Record
Temperature  
Mean Temperature 50 °F -  
Max Temperature 53 °F 42 °F 64 °F (2006)
Min Temperature 46 °F 29 °F 19 °F (2004)
Degree Days  
Heating Degree Days 16    
Moisture  
Dew Point 26 °F    
Average Humidity 42    
Maximum Humidity 87    
Minimum Humidity 24    
Precipitation  
Precipitation 0.00 in - - ()
Sea Level Pressure  
Sea Level Pressure 30.29 in    
Wind  
Wind Speed 11 mph (WSW)    
Max Wind Speed 15 mph    
Max Gust Speed 23 mph    
Visibility 10 miles    
Events      
Averages and records for this station are not official NWS values.
T = Trace of Precipitation, MM = Missing Value Source: NWS Daily Summary

Daily Weather History Graph

Daily Weather History Graph

Search for Another Location

Airport or City:

Trip Planner

Search our weather history database for the weather conditions in past years. The results will help you decide how hot, cold, wet, or windy it might be!

Date:

Astronomy

Nov. 26, 2011 Rise Set
Actual Time 7:11 AM EST 5:01 PM EST
Civil Twilight 6:42 AM EST 5:30 PM EST
Nautical Twilight 6:10 AM EST 6:02 PM EST
Astronomical Twilight 5:38 AM EST 6:34 PM EST
Moon 8:39 AM EST (11/26) 6:31 PM EST (11/26)
Length of Visible Light 10h 47m
Length of Day
9h 50m
Waxing Crescent, 3% of the Moon is Illuminated
Nov 26
Waxing Crescent
Dec 2
First Quarter
Dec 10
Full
Dec 17
Last Quarter
Dec 24
New

Hourly Weather History & Observations

Time (EST) Temp. Windchill Dew Point Humidity Pressure Visibility Wind Dir Wind Speed Gust Speed Precip Events Conditions
12:15 AM 48.2 °F - 15.8 °F 27% 30.30 in 10.0 mi West 15.0 mph - N/A   Clear
1:35 AM 46.4 °F 40.7 °F 17.6 °F 32% 30.29 in 10.0 mi WSW 12.7 mph - N/A   Clear
1:55 AM 48.2 °F - 15.8 °F 27% 30.29 in 10.0 mi WSW 13.8 mph - N/A   Clear
2:15 AM 46.4 °F 40.7 °F 17.6 °F 32% 30.30 in 10.0 mi WSW 12.7 mph - N/A   Clear
2:35 AM 48.2 °F - 15.8 °F 27% 30.29 in 10.0 mi WSW 13.8 mph - N/A   Clear
2:55 AM 48.2 °F - 15.8 °F 27% 30.30 in 10.0 mi WSW 12.7 mph - N/A   Clear
3:15 AM 48.2 °F - 15.8 °F 27% 30.29 in 10.0 mi WSW 12.7 mph - N/A   Clear
3:35 AM 48.2 °F - 15.8 °F 27% 30.29 in 10.0 mi West 13.8 mph - N/A   Clear
3:55 AM 48.2 °F - 15.8 °F 27% 30.29 in 10.0 mi West 12.7 mph - N/A   Clear
4:15 AM 48.2 °F - 15.8 °F 27% 30.29 in 10.0 mi West 11.5 mph - N/A   Clear
4:35 AM 48.2 °F - 15.8 °F 27% 30.29 in 10.0 mi West 12.7 mph - N/A   Clear
4:55 AM 50.0 °F - 15.8 °F 26% 30.29 in 10.0 mi WSW 13.8 mph - N/A   Clear
5:35 AM 50.0 °F - 15.8 °F 26% 30.29 in 10.0 mi West 12.7 mph - N/A   Clear
5:55 AM 48.2 °F - 15.8 °F 27% 30.29 in 10.0 mi West 11.5 mph - N/A   Clear
6:15 AM 50.0 °F - 14.0 °F 24% 30.30 in 10.0 mi West 12.7 mph - N/A   Clear
6:35 AM 50.0 °F - 15.8 °F 26% 30.31 in 10.0 mi West 13.8 mph - N/A   Clear
6:55 AM 50.0 °F - 15.8 °F 26% 30.32 in 10.0 mi West 13.8 mph - N/A   Unknown
7:15 AM 48.2 °F - 15.8 °F 27% 30.32 in 10.0 mi West 12.7 mph - N/A   Clear
7:35 AM 50.0 °F - 15.8 °F 26% 30.33 in 10.0 mi West 11.5 mph - N/A   Clear
7:55 AM 50.0 °F - 15.8 °F 26% 30.33 in 10.0 mi West 10.4 mph - N/A   Clear
8:15 AM 51.8 °F - 15.8 °F 24% 30.34 in 10.0 mi West 9.2 mph - N/A   Clear
8:35 AM 50.0 °F - 15.8 °F 26% 30.34 in 10.0 mi West 10.4 mph - N/A   Clear
8:55 AM 50.0 °F - 15.8 °F 26% 30.35 in 10.0 mi WNW 10.4 mph - N/A   Clear
9:15 AM 51.8 °F - 17.6 °F 26% 30.35 in 10.0 mi WNW 11.5 mph - N/A   Clear
9:35 AM 51.8 °F - 17.6 °F 26% 30.35 in 10.0 mi WNW 10.4 mph - N/A   Clear
10:15 AM 51.8 °F - 19.4 °F 28% 30.35 in 10.0 mi WNW 15.0 mph - N/A   Clear
10:35 AM 51.8 °F - 23.0 °F 33% 30.34 in 10.0 mi West 13.8 mph - N/A   Clear
10:55 AM 51.8 °F - 24.8 °F 35% 30.34 in 10.0 mi West 13.8 mph - N/A   Clear
11:15 AM 51.8 °F - 26.6 °F 38% 30.34 in 10.0 mi WNW 11.5 mph - N/A   Clear
11:35 AM 53.6 °F - 28.4 °F 38% 30.33 in 10.0 mi West 12.7 mph - N/A   Clear
11:55 AM 53.6 °F - 30.2 °F 41% 30.32 in 10.0 mi WNW 9.2 mph - N/A   Clear
12:15 PM 51.8 °F - 30.2 °F 44% 30.32 in 10.0 mi West 8.1 mph - N/A   Clear
12:35 PM 51.8 °F - 30.2 °F 44% 30.31 in 10.0 mi WNW 8.1 mph - N/A   Clear
12:55 PM 51.8 °F - 33.8 °F 50% 30.30 in 10.0 mi WNW 4.6 mph - N/A   Clear
1:15 PM 53.6 °F - 33.8 °F 47% 30.30 in 10.0 mi West 8.1 mph - N/A   Clear
1:35 PM 53.6 °F - 35.6 °F 51% 30.29 in 10.0 mi WNW 8.1 mph - N/A   Clear
1:55 PM 53.6 °F - 35.6 °F 51% 30.28 in 10.0 mi West 8.1 mph - N/A   Clear
2:15 PM 53.6 °F - 35.6 °F 51% 30.28 in 10.0 mi West 6.9 mph - N/A   Clear
2:55 PM 53.6 °F - 35.6 °F 51% 30.28 in 10.0 mi West 4.6 mph - N/A   Clear
3:15 PM 53.6 °F - 35.6 °F 51% 30.28 in 10.0 mi WSW 3.5 mph - N/A   Clear
3:35 PM 53.6 °F - 33.8 °F 47% 30.28 in 10.0 mi Calm Calm - N/A   Clear
3:55 PM 53.6 °F - 33.8 °F 47% 30.28 in 10.0 mi Calm Calm - N/A   Clear
4:15 PM 51.8 °F - 33.8 °F 50% 30.27 in 10.0 mi Calm Calm - N/A   Clear
4:35 PM 50.0 °F - 33.8 °F 54% 30.27 in 10.0 mi SSW 4.6 mph - N/A   Clear
4:55 PM 48.2 °F - 33.8 °F 58% 30.27 in 10.0 mi South 4.6 mph - N/A   Clear
5:15 PM 48.2 °F - 33.8 °F 58% 30.27 in 10.0 mi SSW 4.6 mph - N/A   Clear
5:35 PM 46.4 °F 43.5 °F 33.8 °F 62% 30.28 in 10.0 mi SW 5.8 mph - N/A   Clear
5:55 PM 48.2 °F - 35.6 °F 62% 30.27 in 10.0 mi SSW 5.8 mph - N/A   Clear
6:15 PM 48.2 °F - 32.0 °F 54% 30.27 in 10.0 mi SSW 5.8 mph - N/A   Clear
6:35 PM 48.2 °F - 30.2 °F 50% 30.27 in 10.0 mi South 8.1 mph - N/A   Clear
7:15 PM 48.2 °F - 24.8 °F 40% 30.27 in 10.0 mi South 9.2 mph 16.1 mph N/A   Clear
7:35 PM 48.2 °F - 24.8 °F 40% 30.26 in 10.0 mi South 11.5 mph - N/A   Clear
7:55 PM 48.2 °F - 26.6 °F 43% 30.25 in 10.0 mi South 10.4 mph 17.3 mph N/A   Clear
8:15 PM 48.2 °F - 30.2 °F 50% 30.25 in 10.0 mi South 11.5 mph 16.1 mph N/A   Clear
8:35 PM 48.2 °F - 32.0 °F 54% 30.24 in 10.0 mi South 11.5 mph 18.4 mph N/A   Clear
9:15 PM 46.4 °F 41.5 °F 32.0 °F 57% 30.24 in 10.0 mi South 10.4 mph 16.1 mph N/A   Clear
9:35 PM 46.4 °F 40.7 °F 33.8 °F 62% 30.23 in 10.0 mi South 12.7 mph 18.4 mph N/A   Clear
9:55 PM 46.4 °F 40.7 °F 35.6 °F 66% 30.22 in 10.0 mi South 12.7 mph - N/A   Clear
10:15 PM 46.4 °F 40.7 °F 35.6 °F 66% 30.22 in 10.0 mi South 12.7 mph 19.6 mph N/A   Clear
10:35 PM 46.4 °F 41.5 °F 37.4 °F 71% 30.21 in 10.0 mi South 10.4 mph - N/A   Clear
11:15 PM 46.4 °F 43.5 °F 41.0 °F 81% 30.22 in 10.0 mi SSW 5.8 mph 19.6 mph N/A   Clear
11:35 PM 46.4 °F 41.9 °F 42.8 °F 87% 30.22 in 10.0 mi SSW 9.2 mph - N/A   Clear
11:55 PM 46.4 °F 41.1 °F 42.8 °F 87% 30.21 in 10.0 mi South 11.5 mph 23.0 mph N/A   Clear